| time (UTC) | temp F | wind direction | speed MPH | gust MPH | rain 1hr in | rain 24hr in | rain mn in | humidity % | barometer mb |
| 20260905211803 | 62 | 165 | 9.0 | 14.0 | 0.02 | 0.04 | 0.04 | 93 | 1021.4 |
| 20260905210903 | 62 | 166 | 9.0 | 14.0 | 0.02 | 0.04 | 0.04 | 93 | 1021.4 |
| 20260905210003 | 62 | 167 | 8.0 | 14.0 | 0.02 | 0.03 | 0.03 | 93 | 1021.5 |
| 20260905205403 | 62 | 164 | 9.0 | 15.0 | 0.02 | 0.03 | 0.03 | 93 | 1021.5 |
| 20260905204503 | 62 | 165 | 9.0 | 16.0 | 0.02 | 0.03 | 0.03 | 93 | 1021.7 |
| 20260905203603 | 62 | 165 | 10.0 | 16.0 | 0.01 | 0.02 | 0.02 | 93 | 1021.6 |
| 20260905202703 | 62 | 163 | 10.0 | 16.0 | 0.01 | 0.02 | 0.02 | 93 | 1021.6 |
| 20260905201803 | 62 | 163 | 11.0 | 15.0 | 0.01 | 0.02 | 0.02 | 93 | 1021.6 |
| 20260905200903 | 62 | 163 | 11.0 | 19.0 | 0.01 | 0.02 | 0.02 | 93 | 1021.6 |
| 20260905200003 | 62 | 167 | 12.0 | 20.0 | 0.00 | 0.02 | 0.02 | 93 | 1021.6 |
| 20260905195403 | 62 | 167 | 12.0 | 17.0 | 0.01 | 0.02 | 0.02 | 92 | 1021.5 |
| 20260905194503 | 62 | 164 | 11.0 | 18.0 | 0.01 | 0.02 | 0.02 | 92 | 1021.6 |
| 20260905193603 | 62 | 161 | 11.0 | 18.0 | 0.01 | 0.02 | 0.02 | 92 | 1021.6 |
| 20260905192703 | 62 | 160 | 11.0 | 18.0 | 0.01 | 0.02 | 0.02 | 92 | 1021.6 |
| 20260905191803 | 61 | 161 | 11.0 | 17.0 | 0.01 | 0.02 | 0.02 | 92 | 1021.6 |
| 20260905190903 | 61 | 161 | 12.0 | 18.0 | 0.01 | 0.02 | 0.02 | 92 | 1021.6 |
| 20260905190003 | 61 | 165 | 10.0 | 16.0 | 0.02 | 0.02 | 0.02 | 92 | 1021.7 |
| 20260905185403 | 61 | 162 | 11.0 | 18.0 | 0.01 | 0.01 | 0.01 | 92 | 1021.7 |
| 20260905184503 | 61 | 159 | 12.0 | 18.0 | 0.01 | 0.01 | 0.01 | 92 | 1021.7 |
| 20260905183603 | 61 | 159 | 12.0 | 18.0 | 0.01 | 0.01 | 0.01 | 92 | 1021.8 |
| 20260905182703 | 61 | 156 | 12.0 | 19.0 | 0.01 | 0.01 | 0.01 | 92 | 1021.8 |
| 20260905181803 | 60 | 157 | 12.0 | 17.0 | 0.01 | 0.01 | 0.01 | 92 | 1021.9 |
| 20260905180903 | 60 | 158 | 12.0 | 18.0 | 0.01 | 0.01 | 0.01 | 91 | 1021.9 |
| 20260905180003 | 60 | 159 | 10.0 | 15.0 | 0.00 | 0.00 | 0.00 | 91 | 1022.0 |
| 20260905175403 | 60 | 156 | 10.0 | 16.0 | 0.00 | 0.00 | 0.00 | 91 | 1022.2 |
| 20260905174503 | 60 | 162 | 9.0 | 16.0 | 0.00 | 0.00 | 0.00 | 91 | 1022.2 |
| 20260905173603 | 60 | 168 | 11.0 | 16.0 | 0.00 | 0.00 | 0.00 | 90 | 1022.2 |
| 20260905172703 | 61 | 172 | 9.0 | 15.0 | 0.00 | 0.00 | 0.00 | 90 | 1022.3 |
| 20260905171803 | 61 | 162 | 9.0 | 16.0 | 0.00 | 0.00 | 0.00 | 90 | 1022.3 |
| 20260905170903 | 61 | 159 | 10.0 | 16.0 | 0.00 | 0.00 | 0.00 | 90 | 1022.3 |
| 20260905170003 | 61 | 163 | 11.0 | 18.0 | 0.00 | 0.00 | 0.00 | 89 | 1022.4 |
| 20260905165403 | 61 | 162 | 12.0 | 21.0 | 0.00 | 0.00 | 0.00 | 89 | 1022.3 |
| 20260905164503 | 61 | 164 | 10.0 | 17.0 | 0.00 | 0.00 | 0.00 | 88 | 1022.4 |
| 20260905163603 | 61 | 160 | 10.0 | 17.0 | 0.00 | 0.00 | 0.00 | 87 | 1022.5 |
| 20260905162703 | 61 | 169 | 9.0 | 14.0 | 0.00 | 0.00 | 0.00 | 86 | 1022.6 |
| 20260905161803 | 61 | 169 | 8.0 | 13.0 | 0.00 | 0.00 | 0.00 | 85 | 1022.7 |
| 20260905160903 | 61 | 173 | 8.0 | 17.0 | 0.00 | 0.00 | 0.00 | 85 | 1022.8 |
| 20260905160003 | 61 | 176 | 9.0 | 17.0 | 0.00 | 0.00 | 0.00 | 84 | 1023.0 |
| 20260905155403 | 61 | 174 | 12.0 | 23.0 | 0.00 | 0.00 | 0.00 | 84 | 1023.0 |
| 20260905154503 | 62 | 161 | 12.0 | 24.0 | 0.00 | 0.00 | 0.00 | 81 | 1023.1 |
| 20260905153603 | 63 | 157 | 11.0 | 18.0 | 0.00 | 0.00 | 0.00 | 81 | 1023.0 |
| 20260905152703 | 63 | 158 | 11.0 | 17.0 | 0.00 | 0.00 | 0.00 | 80 | 1023.1 |
| 20260905151803 | 63 | 158 | 11.0 | 16.0 | 0.00 | 0.00 | 0.00 | 80 | 1023.1 |
| 20260905150903 | 63 | 158 | 10.0 | 16.0 | 0.00 | 0.00 | 0.00 | 79 | 1023.1 |
| 20260905150003 | 63 | 155 | 10.0 | 16.0 | 0.00 | 0.00 | 0.00 | 78 | 1023.3 |
| 20260905145403 | 63 | 156 | 10.0 | 16.0 | 0.00 | 0.00 | 0.00 | 78 | 1023.2 |
| 20260905144503 | 63 | 159 | 11.0 | 17.0 | 0.00 | 0.00 | 0.00 | 76 | 1023.3 |
| 20260905143603 | 63 | 158 | 10.0 | 15.0 | 0.00 | 0.00 | 0.00 | 76 | 1023.5 |
| 20260905142703 | 62 | 156 | 10.0 | 15.0 | 0.00 | 0.00 | 0.00 | 76 | 1023.6 |
| 20260905141803 | 62 | 152 | 9.0 | 13.0 | 0.00 | 0.00 | 0.00 | 75 | 1023.7 |
| 20260905140903 | 62 | 149 | 8.0 | 13.0 | 0.00 | 0.00 | 0.00 | 74 | 1023.8 |
| 20260905140003 | 62 | 156 | 7.0 | 11.0 | 0.00 | 0.00 | 0.00 | 74 | 1023.8 |
| 20260905135403 | 62 | 161 | 8.0 | 12.0 | 0.00 | 0.00 | 0.00 | 74 | 1024.0 |
| 20260905134503 | 62 | 173 | 10.0 | 16.0 | 0.00 | 0.00 | 0.00 | 72 | 1024.2 |
| 20260905133603 | 63 | 170 | 11.0 | 20.0 | 0.00 | 0.00 | 0.00 | 71 | 1024.2 |
| 20260905132703 | 63 | 173 | 11.0 | 17.0 | 0.00 | 0.00 | 0.00 | 71 | 1024.2 |
| 20260905131803 | 63 | 171 | 9.0 | 14.0 | 0.00 | 0.00 | 0.00 | 71 | 1024.3 |
| 20260905130903 | 63 | 159 | 10.0 | 15.0 | 0.00 | 0.00 | 0.00 | 73 | 1024.3 |
| 20260905130003 | 62 | 156 | 11.0 | 16.0 | 0.00 | 0.00 | 0.00 | 73 | 1024.4 |
| 20260905125403 | 62 | 157 | 11.0 | 16.0 | 0.00 | 0.00 | 0.00 | 73 | 1024.3 |
| 20260905124503 | 62 | 159 | 10.0 | 15.0 | 0.00 | 0.00 | 0.00 | 73 | 1024.4 |
| 20260905123603 | 62 | 155 | 9.0 | 15.0 | 0.00 | 0.00 | 0.00 | 72 | 1024.3 |
| 20260905122703 | 62 | 156 | 9.0 | 14.0 | 0.00 | 0.00 | 0.00 | 70 | 1024.3 |
| 20260905121803 | 62 | 153 | 10.0 | 15.0 | 0.00 | 0.00 | 0.00 | 70 | 1024.2 |
| 20260905120903 | 63 | 154 | 10.0 | 15.0 | 0.00 | 0.00 | 0.00 | 70 | 1024.2 |
| 20260905120003 | 63 | 155 | 11.0 | 16.0 | 0.00 | 0.00 | 0.00 | 69 | 1024.2 |
| 20260905115403 | 63 | 155 | 11.0 | 16.0 | 0.00 | 0.00 | 0.00 | 68 | 1024.1 |
| 20260905114503 | 64 | 152 | 10.0 | 15.0 | 0.00 | 0.00 | 0.00 | 68 | 1024.1 |
| 20260905113603 | 63 | 150 | 10.0 | 15.0 | 0.00 | 0.00 | 0.00 | 69 | 1024.1 |
| 20260905112703 | 63 | 149 | 11.0 | 16.0 | 0.00 | 0.00 | 0.00 | 68 | 1024.2 |
| 20260905111803 | 64 | 148 | 11.0 | 16.0 | 0.00 | 0.00 | 0.00 | 69 | 1024.1 |
| 20260905110903 | 63 | 147 | 11.0 | 16.0 | 0.00 | 0.00 | 0.00 | 70 | 1024.2 |
| 20260905110003 | 63 | 146 | 10.0 | 14.0 | 0.00 | 0.00 | 0.00 | 69 | 1024.3 |
| 20260905105403 | 63 | 148 | 10.0 | 14.0 | 0.00 | 0.00 | 0.00 | 69 | 1024.3 |
| 20260905104503 | 64 | 150 | 9.0 | 15.0 | 0.00 | 0.00 | 0.00 | 67 | 1024.3 |
| 20260905103603 | 64 | 155 | 8.0 | 13.0 | 0.00 | 0.00 | 0.00 | 68 | 1024.5 |
| 20260905102703 | 63 | 151 | 9.0 | 13.0 | 0.00 | 0.00 | 0.00 | 68 | 1024.3 |
| 20260905101803 | 62 | 152 | 8.0 | 13.0 | 0.00 | 0.00 | 0.00 | 72 | 1024.3 |
| 20260905100903 | 62 | 157 | 8.0 | 14.0 | 0.00 | 0.00 | 0.00 | 71 | 1024.3 |
| 20260905100003 | 62 | 154 | 8.0 | 13.0 | 0.00 | 0.00 | 0.00 | 72 | 1024.2 |
| 20260905095403 | 62 | 148 | 6.0 | 11.0 | 0.00 | 0.00 | 0.00 | 71 | 1024.3 |
| 20260905094503 | 63 | 143 | 4.0 | 7.0 | 0.00 | 0.00 | 0.00 | 70 | 1024.3 |
| 20260905093603 | 63 | 145 | 3.0 | 5.0 | 0.00 | 0.00 | 0.00 | 71 | 1024.5 |
| 20260905092703 | 63 | 143 | 3.0 | 5.0 | 0.00 | 0.00 | 0.00 | 73 | 1024.1 |
| 20260905091803 | 62 | 147 | 3.0 | 6.0 | 0.00 | 0.00 | 0.00 | 72 | 1024.0 |
| 20260905090903 | 62 | 154 | 3.0 | 5.0 | 0.00 | 0.00 | 0.00 | 71 | 1024.0 |
| 20260905090003 | 62 | 167 | 2.0 | 5.0 | 0.00 | 0.00 | 0.00 | 72 | 1024.0 |
| 20260905085403 | 61 | 168 | 1.0 | 4.0 | 0.00 | 0.00 | 0.00 | 73 | 1024.0 |
| 20260905084503 | 60 | 182 | 0.0 | 3.0 | 0.00 | 0.00 | 0.00 | 74 | 1024.0 |
| 20260905083603 | 60 | 183 | 1.0 | 3.0 | 0.00 | 0.00 | 0.00 | 78 | 1024.0 |
| 20260905082703 | 59 | 163 | 2.0 | 4.0 | 0.00 | 0.00 | 0.00 | 78 | 1023.9 |
| 20260905081803 | 58 | 150 | 0.0 | 2.0 | 0.00 | 0.00 | 0.00 | 80 | 1023.8 |
| 20260905080903 | 57 | 168 | 2.0 | 3.0 | 0.00 | 0.00 | 0.00 | 81 | 1023.7 |
| 20260905080003 | 57 | 162 | 2.0 | 4.0 | 0.00 | 0.00 | 0.00 | 82 | 1023.8 |
| 20260905075403 | 56 | 151 | 2.0 | 4.0 | 0.00 | 0.00 | 0.00 | 83 | 1023.8 |
| 20260905074503 | 56 | 191 | 1.0 | 3.0 | 0.00 | 0.00 | 0.00 | 84 | 1023.8 |
| 20260905073603 | 55 | 239 | 0.0 | 1.0 | 0.00 | 0.00 | 0.00 | 84 | 1023.8 |
| 20260905072703 | 54 | 239 | 0.0 | 1.0 | 0.00 | 0.00 | 0.00 | 84 | 1023.7 |
| 20260905071803 | 54 | 239 | 0.0 | 1.0 | 0.00 | 0.00 | 0.00 | 84 | 1023.9 |
| 20260905070903 | 54 | 0 | 0.0 | 0.0 | 0.00 | 0.00 | 0.00 | 83 | 1023.8 |
| 20260905070003 | 53 | 239 | 0.0 | 1.0 | 0.00 | 0.00 | 0.00 | 82 | 1023.7 |
| 20260905065403 | 53 | 249 | 1.0 | 4.0 | 0.00 | 0.00 | 0.00 | 82 | 1023.7 |
| 20260905064503 | 53 | 309 | 1.0 | 3.0 | 0.00 | 0.00 | 0.00 | 81 | 1023.6 |
| 20260905063603 | 54 | 274 | 1.0 | 3.0 | 0.00 | 0.00 | 0.00 | 80 | 1023.6 |
| 20260905062703 | 54 | 263 | 0.0 | 2.0 | 0.00 | 0.00 | 0.00 | 80 | 1023.5 |
| 20260905061803 | 54 | 257 | 2.0 | 6.0 | 0.00 | 0.00 | 0.00 | 79 | 1023.5 |
| 20260905060903 | 54 | 249 | 3.0 | 5.0 | 0.00 | 0.00 | 0.00 | 79 | 1023.5 |
| 20260905060003 | 55 | 246 | 3.0 | 5.0 | 0.00 | 0.00 | 0.00 | 79 | 1023.5 |
| 20260905055403 | 55 | 241 | 2.0 | 6.0 | 0.00 | 0.00 | 0.00 | 79 | 1023.5 |
| 20260905054503 | 55 | 242 | 2.0 | 4.0 | 0.00 | 0.00 | 0.00 | 78 | 1023.3 |
| 20260905053603 | 55 | 255 | 2.0 | 5.0 | 0.00 | 0.00 | 0.00 | 78 | 1023.2 |
| 20260905052703 | 55 | 262 | 2.0 | 5.0 | 0.00 | 0.00 | 0.00 | 78 | 1023.1 |
| 20260905051803 | 55 | 258 | 2.0 | 7.0 | 0.00 | 0.00 | 0.00 | 78 | 1023.1 |
| 20260905050903 | 56 | 250 | 2.0 | 7.0 | 0.00 | 0.00 | 0.00 | 78 | 1023.1 |
| 20260905050003 | 56 | 254 | 3.0 | 5.0 | 0.00 | 0.00 | 0.00 | 77 | 1023.1 |
| 20260905045403 | 56 | 257 | 3.0 | 6.0 | 0.00 | 0.00 | 0.00 | 78 | 1023.1 |
| 20260905044503 | 56 | 262 | 3.0 | 7.0 | 0.00 | 0.00 | 0.00 | 77 | 1023.1 |
| 20260905043603 | 56 | 258 | 3.0 | 5.0 | 0.00 | 0.00 | 0.00 | 77 | 1023.2 |
| 20260905042703 | 56 | 256 | 3.0 | 7.0 | 0.00 | 0.00 | 0.00 | 77 | 1023.1 |
| 20260905041803 | 55 | 257 | 3.0 | 8.0 | 0.00 | 0.00 | 0.00 | 77 | 1023.1 |
| 20260905040903 | 55 | 255 | 3.0 | 7.0 | 0.00 | 0.00 | 0.00 | 77 | 1023.0 |
| 20260905040003 | 55 | 255 | 2.0 | 7.0 | 0.00 | 0.00 | 0.00 | 77 | 1023.0 |
| 20260905035403 | 55 | 254 | 3.0 | 7.0 | 0.00 | 0.00 | 0.00 | 77 | 1022.9 |
| 20260905034503 | 55 | 257 | 4.0 | 8.0 | 0.00 | 0.00 | 0.00 | 77 | 1022.9 |
| 20260905033603 | 55 | 260 | 4.0 | 9.0 | 0.00 | 0.00 | 0.00 | 77 | 1022.9 |
| 20260905032703 | 55 | 255 | 3.0 | 6.0 | 0.00 | 0.00 | 0.00 | 77 | 1022.9 |
| 20260905031803 | 55 | 262 | 3.0 | 8.0 | 0.00 | 0.00 | 0.00 | 77 | 1022.8 |
| 20260905030903 | 55 | 264 | 3.0 | 7.0 | 0.00 | 0.00 | 0.00 | 77 | 1022.7 |
| 20260905030003 | 55 | 263 | 3.0 | 7.0 | 0.00 | 0.00 | 0.00 | 77 | 1022.7 |
| 20260905025403 | 55 | 261 | 2.0 | 7.0 | 0.00 | 0.00 | 0.00 | 77 | 1022.6 |
| 20260905024503 | 56 | 266 | 3.0 | 7.0 | 0.00 | 0.00 | 0.00 | 77 | 1022.7 |
| 20260905023603 | 56 | 257 | 3.0 | 6.0 | 0.00 | 0.00 | 0.00 | 77 | 1022.7 |
| 20260905022703 | 56 | 262 | 3.0 | 5.0 | 0.00 | 0.00 | 0.00 | 77 | 1022.6 |
| 20260905021803 | 56 | 269 | 3.0 | 7.0 | 0.00 | 0.00 | 0.00 | 77 | 1022.4 |
| 20260905020903 | 56 | 263 | 3.0 | 7.0 | 0.00 | 0.00 | 0.00 | 77 | 1022.4 |
| 20260905020003 | 56 | 255 | 2.0 | 7.0 | 0.00 | 0.00 | 0.00 | 77 | 1022.4 |
| 20260905015403 | 56 | 261 | 2.0 | 8.0 | 0.00 | 0.00 | 0.00 | 77 | 1022.3 |
| 20260905014503 | 56 | 273 | 1.0 | 5.0 | 0.00 | 0.01 | 0.00 | 77 | 1022.3 |
| 20260905013603 | 56 | 259 | 2.0 | 6.0 | 0.00 | 0.02 | 0.00 | 77 | 1022.4 |
| 20260905012703 | 56 | 259 | 2.0 | 8.0 | 0.00 | 0.02 | 0.00 | 77 | 1022.4 |
| 20260905011803 | 56 | 268 | 3.0 | 8.0 | 0.00 | 0.02 | 0.00 | 77 | 1022.4 |
| 20260905010903 | 56 | 263 | 2.0 | 6.0 | 0.00 | 0.03 | 0.00 | 78 | 1022.3 |
| 20260905010003 | 56 | 258 | 2.0 | 5.0 | 0.00 | 0.04 | 0.00 | 77 | 1022.3 |
| 20260905005403 | 56 | 263 | 2.0 | 5.0 | 0.00 | 0.04 | 0.00 | 77 | 1022.3 |
| 20260905004503 | 56 | 271 | 3.0 | 6.0 | 0.00 | 0.04 | 0.00 | 77 | 1022.3 |
| 20260905003603 | 55 | 268 | 3.0 | 8.0 | 0.00 | 0.04 | 0.00 | 78 | 1022.4 |
| 20260905002703 | 55 | 267 | 3.0 | 8.0 | 0.00 | 0.04 | 0.00 | 78 | 1022.3 |
| 20260905001803 | 55 | 274 | 3.0 | 8.0 | 0.00 | 0.05 | 0.00 | 79 | 1022.2 |
| 20260905000903 | 55 | 266 | 4.0 | 9.0 | 0.00 | 0.05 | 0.00 | 79 | 1022.2 |
| 20260905000003 | 55 | 258 | 4.0 | 8.0 | 0.00 | 0.05 | 0.00 | 78 | 1022.2 |
| 20260904235403 | 55 | 261 | 4.0 | 8.0 | 0.00 | 0.05 | 0.00 | 77 | 1022.1 |
| 20260904234503 | 55 | 262 | 3.0 | 8.0 | 0.00 | 0.05 | 0.00 | 77 | 1022.1 |
| 20260904233603 | 55 | 254 | 3.0 | 6.0 | 0.00 | 0.05 | 0.00 | 76 | 1022.2 |
| 20260904232703 | 56 | 251 | 3.0 | 7.0 | 0.00 | 0.05 | 0.00 | 76 | 1021.9 |
| 20260904231803 | 56 | 252 | 2.0 | 5.0 | 0.00 | 0.05 | 0.00 | 76 | 1021.9 |
| 20260904230903 | 56 | 268 | 2.0 | 6.0 | 0.00 | 0.05 | 0.00 | 75 | 1021.8 |
| 20260904230003 | 56 | 268 | 3.0 | 7.0 | 0.00 | 0.05 | 0.00 | 75 | 1021.7 |
| 20260904225403 | 56 | 271 | 3.0 | 7.0 | 0.00 | 0.05 | 0.05 | 75 | 1021.7 |
| 20260904224503 | 56 | 274 | 3.0 | 7.0 | 0.00 | 0.05 | 0.05 | 75 | 1021.7 |
| 20260904223603 | 56 | 263 | 3.0 | 7.0 | 0.00 | 0.05 | 0.05 | 75 | 1021.7 |
| 20260904222703 | 56 | 256 | 2.0 | 6.0 | 0.00 | 0.05 | 0.05 | 74 | 1021.8 |
| 20260904221803 | 56 | 251 | 3.0 | 6.0 | 0.00 | 0.05 | 0.05 | 73 | 1021.8 |
| 20260904220903 | 56 | 251 | 2.0 | 4.0 | 0.00 | 0.05 | 0.05 | 73 | 1021.8 |
| 20260904220003 | 57 | 256 | 2.0 | 5.0 | 0.00 | 0.05 | 0.05 | 73 | 1021.9 |
| 20260904215403 | 57 | 252 | 2.0 | 6.0 | 0.00 | 0.05 | 0.05 | 72 | 1021.9 |
| 20260904214503 | 57 | 251 | 3.0 | 8.0 | 0.00 | 0.05 | 0.05 | 72 | 1021.9 |
| 20260904213603 | 57 | 257 | 3.0 | 6.0 | 0.00 | 0.05 | 0.05 | 72 | 1021.9 |
| 20260904212703 | 57 | 265 | 3.0 | 5.0 | 0.00 | 0.07 | 0.05 | 71 | 1021.8 |